Theta_e
318 318 314 302 287 287 285 290 296 295 295 299 301 301 300 302 302 297 320 331 340 341 344 346 349 352 352 352 352 352 352 353 354 355 354 354 353 353 353 352 352 351 350 350 348 345 344 343 343
315 315 306 293 283 280 283 290 292 296 299 301 300 302 299 301 305 317 320 332 341 342 344 346 346 351 351 351 351 351 352 352 353 353 354 353 353 353 352 351 351 350 349 349 346 344 342 341 341
320 316 294 287 282 282 282 290 293 296 300 299 298 302 300 302 306 316 324 332 340 341 343 345 346 350 351 351 351 351 351 351 352 352 353 352 352 351 351 350 349 349 347 347 345 342 341 340 340
311 303 296 283 283 287 288 289 294 294 297 297 297 297 300 307 308 324 330 332 334 340 342 343 346 350 350 350 350 351 351 351 351 352 352 352 351 350 349 348 348 347 347 344 342 340 339 338 339
304 295 286 282 284 289 290 294 295 294 295 297 296 297 297 303 322 327 329 331 333 337 340 343 345 348 349 349 350 350 350 351 350 350 350 351 350 349 348 347 346 345 343 340 337 335 335 335 337
296 292 282 283 285 289 292 294 294 295 295 297 293 293 296 303 314 321 326 328 332 337 340 343 339 342 345 347 347 348 349 348 349 348 349 349 348 347 347 346 344 341 338 335 333 330 329 329 330
292 287 285 284 285 287 291 296 293 295 296 296 298 293 295 299 305 318 323 327 335 339 340 341 343 342 337 340 341 343 345 346 346 346 346 345 344 344 343 341 341 337 335 332 330 327 324 323 322
297 293 286 286 284 285 293 295 297 296 296 302 302 294 293 299 308 317 322 330 333 338 339 340 343 342 342 341 334 336 338 340 339 340 338 336 337 336 335 333 335 335 332 329 327 324 323 320 317
296 289 285 286 286 288 292 292 297 300 297 298 299 298 298 309 320 323 323 325 328 333 337 340 339 341 340 339 333 330 332 333 333 332 329 329 333 330 328 327 330 331 330 326 325 322 319 316 315
292 286 286 292 292 290 292 291 293 293 294 294 295 298 299 313 321 320 320 322 324 327 332 338 338 339 339 337 333 334 333 334 333 332 330 329 327 324 323 322 324 326 325 324 322 319 314 306 299
290 287 290 292 294 295 293 293 294 292 290 292 291 296 298 301 315 321 320 322 324 326 333 336 338 339 337 334 333 333 334 332 330 329 327 323 321 320 319 319 317 316 315 315 312 309 305 301 298
282 286 288 292 294 294 292 295 293 292 292 295 296 297 298 298 307 319 320 321 322 326 330 334 338 335 335 334 333 331 330 330 329 327 325 321 317 316 314 312 311 309 307 305 302 300 301 300 300
281 283 286 287 287 287 289 289 291 292 296 297 296 297 297 298 299 306 322 323 324 326 328 333 335 334 333 332 330 329 328 328 327 326 322 320 315 314 313 311 309 306 305 302 299 300 300 299 300
284 284 283 284 284 285 284 284 286 290 295 294 295 295 296 297 299 302 307 319 322 327 329 333 333 332 331 331 329 328 327 326 326 323 319 317 315 313 312 310 308 305 303 301 300 300 299 299 300
284 278 280 281 282 282 285 281 282 288 292 292 293 294 295 298 298 298 304 310 320 326 328 330 332 331 330 330 328 327 326 326 325 321 317 316 314 312 310 308 306 302 301 302 300 300 299 298 299
278 277 272 279 281 282 281 275 283 288 288 290 293 293 293 296 297 298 300 302 310 322 326 329 330 329 329 328 328 327 325 325 324 320 316 315 313 310 307 305 303 301 300 300 299 299 297 297 296
275 270 271 274 280 280 279 275 282 286 286 287 290 292 293 295 295 297 299 299 307 321 324 326 329 326 326 326 326 325 324 323 322 320 316 313 312 308 306 304 302 300 299 299 299 296 297 295 295
271 271 273 272 277 278 276 277 281 284 284 284 287 290 292 293 295 298 298 300 301 317 323 325 325 324 325 325 323 322 321 321 321 319 317 312 311 308 306 303 301 301 299 297 297 297 296 295 295
276 274 273 275 279 277 276 276 279 282 282 282 283 286 290 293 296 296 297 299 299 315 320 322 324 324 323 320 317 318 317 317 317 318 317 312 309 307 306 304 301 300 299 298 297 296 295 294 293
275 273 272 276 278 277 275 275 278 279 280 282 282 284 286 289 294 296 297 297 298 309 319 320 322 322 322 320 318 317 317 316 317 316 313 312 307 306 305 304 302 300 298 297 297 296 294 294 293
275 274 274 273 276 277 275 272 275 279 280 282 283 285 286 287 289 291 294 296 298 305 316 319 320 321 321 320 318 315 315 314 312 309 309 309 307 306 306 305 303 301 301 298 297 297 295 292 293
273 278 277 276 274 267 275 264 272 276 277 280 282 283 284 286 289 291 292 295 296 300 313 319 320 320 321 319 317 315 312 310 311 310 310 308 308 306 305 305 303 302 301 300 298 298 295 293 293
275 279 276 275 273 271 270 266 270 275 274 277 280 282 283 286 288 290 291 294 296 298 307 312 317 319 320 317 318 316 315 314 313 311 309 308 306 305 304 304 303 301 301 300 299 296 295 293 292
280 276 274 273 267 263 269 268 268 271 274 276 280 282 284 285 287 290 292 293 299 301 302 305 309 316 317 316 316 315 315 312 310 309 307 307 305 304 304 304 303 302 300 300 299 298 297 295 292
274 272 262 258 257 259 271 270 270 275 277 279 280 281 283 285 287 288 290 290 292 296 300 304 307 310 313 314 314 314 314 312 311 309 308 306 304 303 303 303 302 301 300 300 300 298 296 295 294
270 272 267 260 261 264 272 265 271 276 277 280 282 282 282 282 283 283 283 285 286 287 288 290 293 304 309 313 313 313 313 313 312 310 309 307 305 305 304 303 302 301 300 299 299 298 297 296 293
271 265 273 268 263 264 267 272 274 275 274 276 277 280 281 281 281 282 282 282 283 283 284 285 287 289 292 294 307 310 311 311 311 311 310 308 307 305 302 302 302 301 300 299 298 297 293 292 291
276 278 264 263 259 257 264 265 265 269 270 273 274 276 278 280 280 282 282 283 284 284 283 284 286 286 287 289 292 299 309 309 309 308 308 308 307 304 300 293 292 291 292 293 294 292 290 290 288
271 268 269 270 267 259 262 262 271 270 271 271 273 276 277 278 279 281 282 283 282 282 282 280 283 284 285 286 288 290 294 306 305 306 304 298 293 294 293 293 291 290 290 290 291 290 290 291 289
275 272 272 264 261 264 265 264 273 272 273 273 273 275 276 277 277 279 281 281 282 282 281 282 283 284 285 285 286 287 289 293 294 296 293 293 295 294 293 292 292 291 290 290 292 290 290 291 288
Wind_Speed
3 3 2 4 3 2 5 10 11 16 10 7 6 5 6 10 4 7 4 3 12 12 15 16 23 23 20 20 19 18 17 17 16 19 18 18 17 17 18 16 15 14 16 17 17 16 15 13 12
2 3 2 0 4 5 8 8 18 22 16 20 13 6 1 8 5 3 4 6 11 16 15 16 16 20 21 20 19 19 17 16 16 18 19 19 18 18 18 17 16 16 18 19 16 16 15 14 12
3 2 4 4 5 15 10 13 22 18 22 18 7 6 6 5 5 7 4 8 13 12 15 16 19 20 21 20 19 19 19 17 16 18 20 20 19 18 17 17 16 17 18 18 16 16 16 14 12
3 1 4 4 19 23 18 8 17 9 16 9 4 8 4 8 5 7 7 7 10 12 14 17 21 21 21 20 19 19 19 18 18 19 21 21 20 19 18 18 17 18 18 17 16 15 16 15 12
1 2 4 7 24 23 12 21 19 20 14 21 6 10 5 1 9 9 8 7 11 12 12 16 20 20 20 20 19 19 19 19 19 20 20 20 21 19 19 19 19 18 18 17 17 16 15 15 13
3 3 4 18 26 25 15 18 14 17 14 22 6 6 7 5 11 10 9 8 10 13 11 15 16 17 20 19 18 19 19 19 19 21 22 21 21 21 22 20 21 20 19 18 17 15 15 14 12
5 3 16 15 18 22 24 16 14 26 26 25 7 9 7 5 9 9 10 8 8 11 13 12 15 16 17 16 16 16 17 18 18 20 22 23 22 22 21 20 20 22 21 18 17 16 15 14 12
5 4 14 14 20 34 25 16 21 25 30 17 14 11 8 7 9 7 6 8 7 9 11 12 12 12 13 12 15 15 16 17 16 16 15 16 18 18 18 17 20 21 20 18 17 16 15 14 12
1 9 19 29 28 33 7 18 22 22 20 14 9 11 9 5 9 7 7 5 5 5 10 12 12 10 11 11 9 11 16 14 15 14 16 14 11 14 12 12 17 18 18 18 17 16 15 13 11
12 14 28 29 24 25 22 22 24 18 26 17 9 7 5 6 8 10 7 9 6 7 7 9 14 11 11 8 8 9 8 10 11 13 12 9 11 10 9 10 15 16 16 17 16 16 15 9 4
8 21 25 26 24 21 27 31 15 20 25 21 6 11 13 6 8 11 8 8 14 6 6 10 13 13 12 9 7 5 5 7 9 15 12 10 8 8 8 6 5 5 7 6 8 8 4 5 5
16 23 21 22 25 26 26 28 24 17 23 12 17 12 16 14 8 11 12 12 9 8 8 10 13 13 12 9 8 7 7 6 9 12 14 10 7 9 7 7 5 5 3 5 4 4 5 6 7
16 18 19 20 21 22 23 27 30 27 27 18 17 19 19 11 8 9 15 14 14 13 9 12 14 14 11 13 8 8 7 7 8 10 14 10 9 9 7 7 6 5 5 5 4 5 5 6 6
12 18 18 19 23 20 23 28 23 27 22 23 23 22 19 12 11 7 9 12 13 15 14 13 13 14 14 11 12 9 8 8 9 8 10 13 10 9 8 8 7 5 5 5 5 5 5 4 5
12 19 21 18 18 21 22 27 29 24 21 20 22 21 18 14 10 8 7 10 14 13 15 15 14 15 16 15 13 10 8 10 9 8 12 11 12 11 9 7 7 5 5 7 6 5 4 5 3
18 14 15 20 18 22 21 26 24 17 18 20 20 16 16 19 11 9 9 7 8 11 15 14 13 14 16 15 13 11 11 9 9 10 9 12 13 12 9 8 7 6 5 5 5 5 4 5 5
13 17 21 24 19 22 22 25 21 17 22 20 21 19 17 20 11 11 8 9 7 8 12 12 14 16 14 13 12 12 15 11 10 10 11 13 12 12 10 8 7 7 5 5 7 3 5 4 4
17 14 18 20 20 17 21 19 19 17 19 22 19 20 21 14 20 20 13 9 8 9 10 14 12 13 13 10 10 9 10 10 9 11 11 15 12 13 11 8 8 8 7 5 4 6 2 4 5
20 23 23 21 23 20 24 19 19 20 19 21 19 19 21 23 18 11 11 13 8 10 13 13 14 15 11 9 9 10 11 10 10 9 13 16 14 14 12 9 10 9 10 10 8 5 6 2 4
18 20 24 24 21 17 20 22 16 19 18 19 17 19 15 14 22 19 18 11 11 12 17 17 17 16 14 11 9 5 8 8 11 9 10 12 14 16 13 13 11 11 8 9 8 6 4 3 6
17 16 22 23 23 19 18 19 19 20 17 18 20 17 15 17 14 13 17 17 15 15 16 17 17 19 17 16 9 6 7 5 6 7 8 11 15 16 17 15 12 11 10 10 11 10 8 5 4
18 10 14 20 13 13 5 15 20 16 20 16 18 16 14 14 14 14 10 15 17 18 14 17 16 17 17 17 15 16 13 10 7 10 11 11 14 14 12 14 14 13 9 11 10 9 6 5 8
17 13 20 22 14 8 12 8 20 9 18 18 16 15 15 15 13 15 13 9 10 12 14 13 16 17 16 17 16 14 13 10 7 10 12 13 12 13 13 14 15 14 11 11 12 10 8 5 5
20 16 17 12 2 6 23 9 19 5 15 16 15 12 11 17 16 14 15 9 8 7 5 8 13 17 17 17 18 18 17 13 10 12 11 11 11 11 14 14 14 14 13 12 12 12 13 10 5
7 10 5 6 3 9 5 8 16 17 16 15 10 12 6 8 9 13 14 5 2 4 5 7 8 11 15 17 16 17 16 16 15 14 12 13 11 10 15 16 14 13 13 12 11 11 11 11 9
11 3 6 7 7 18 10 6 6 10 14 15 14 12 14 14 16 16 15 10 11 13 12 9 9 5 8 16 16 14 15 11 10 12 11 11 12 12 15 16 15 15 14 12 13 10 10 10 8
8 4 5 7 6 9 4 4 10 21 18 17 16 15 15 13 15 16 14 10 11 12 11 9 9 9 9 9 3 8 8 10 12 13 12 10 10 10 13 16 15 14 14 14 14 10 10 9 8
6 5 7 4 7 7 5 5 7 19 19 16 15 13 12 10 15 13 11 12 10 10 7 8 9 9 7 8 6 6 9 9 9 6 12 13 11 11 12 10 8 8 8 9 12 8 7 10 6
6 3 2 4 4 4 7 3 4 10 10 12 12 11 11 10 9 9 8 7 7 9 8 5 9 8 8 6 6 7 8 9 8 9 7 7 7 9 10 12 11 11 11 11 11 9 11 13 10
5 5 2 3 6 4 4 3 8 11 11 12 13 14 12 10 11 9 9 6 5 11 10 9 10 8 7 7 5 5 6 6 8 8 6 7 10 11 14 14 14 14 14 14 16 15 13 15 14
Wind_Direction
288 267 25 23 91 111 227 232 248 275 290 220 246 232 214 244 192 214 205 223 123 141 158 165 161 158 160 160 158 157 161 162 163 165 159 155 152 148 144 142 141 140 139 139 128 128 120 121 119
293 206 40 323 158 221 235 226 237 248 249 267 275 288 265 259 237 169 115 160 145 148 155 160 166 161 158 160 160 159 164 165 163 165 160 156 154 152 149 144 141 144 143 134 132 130 125 126 128
278 237 113 170 210 229 225 209 238 239 245 249 304 224 193 223 300 164 214 146 135 151 159 161 160 165 159 161 162 162 162 166 162 165 161 157 155 151 147 142 141 144 142 130 134 132 130 127 124
211 2 304 189 231 238 227 213 241 248 273 241 271 248 251 194 160 149 149 154 134 155 164 160 160 163 162 162 163 164 163 165 161 163 159 156 153 148 145 141 138 140 131 130 130 131 126 121 120
171 265 215 233 243 249 235 236 250 256 256 270 247 253 233 103 132 143 155 165 144 157 163 165 160 161 162 165 167 167 166 164 162 158 160 156 148 144 141 138 135 127 128 134 132 130 123 119 117
262 160 209 230 241 250 248 252 260 256 253 259 243 233 242 194 144 172 156 177 148 156 153 163 159 159 162 165 167 172 170 169 166 161 158 153 147 145 141 141 133 133 135 135 133 127 123 119 117
213 238 232 243 252 261 243 242 244 249 252 252 261 259 267 209 207 164 162 177 131 145 151 164 168 165 160 166 166 175 171 168 166 162 159 151 145 145 140 136 136 138 138 138 134 128 125 119 116
241 219 250 248 245 255 248 250 241 241 260 271 258 239 238 249 166 140 105 111 122 141 148 159 168 165 163 171 169 168 173 171 172 162 150 142 137 131 131 136 141 137 138 139 136 130 126 120 113
212 247 236 238 241 238 349 238 251 267 275 282 242 266 222 173 119 102 109 105 124 138 151 161 154 168 160 167 175 174 165 150 132 134 125 135 133 124 132 141 133 135 139 139 133 133 123 118 112
213 237 238 241 253 257 268 267 279 296 282 277 308 295 243 145 144 150 170 167 172 177 173 170 151 171 162 165 161 148 161 143 141 135 133 137 129 130 122 115 126 133 136 136 137 131 124 111 103
269 238 246 254 258 258 266 269 278 283 278 280 295 301 292 180 172 171 187 194 187 181 174 175 165 163 163 160 150 147 152 144 141 134 131 129 122 130 121 121 116 123 121 133 131 125 118 127 119
288 279 273 273 279 277 268 278 267 260 266 274 293 299 290 294 192 181 188 189 186 177 184 164 166 159 165 157 159 156 153 155 144 143 135 140 139 133 133 126 125 118 119 124 126 129 133 121 125
280 285 291 300 300 297 302 277 266 258 262 271 279 282 280 272 246 222 202 198 188 184 176 178 169 168 162 163 154 157 163 155 151 153 139 147 144 138 140 134 136 140 139 140 145 138 129 116 114
307 296 292 301 300 302 288 283 287 281 268 270 268 270 272 269 255 229 183 190 193 183 184 174 172 168 163 168 163 160 153 147 151 139 145 146 144 140 150 146 147 151 156 148 143 138 133 129 121
267 299 297 285 289 289 292 278 267 278 281 286 274 259 262 257 262 269 260 182 191 190 182 174 171 167 170 163 162 154 157 155 155 147 148 146 143 148 152 155 154 162 154 141 131 129 120 119 111
274 275 279 270 269 270 265 273 278 283 275 275 274 274 255 257 252 261 246 258 208 179 186 177 170 180 176 165 165 162 162 161 165 150 148 154 143 146 151 153 157 152 148 142 141 140 131 134 136
261 265 268 276 262 265 262 275 276 263 272 269 261 273 280 259 246 254 243 240 217 189 178 178 175 170 182 171 166 165 163 168 164 158 159 158 153 152 152 159 158 153 143 151 149 142 137 145 146
276 271 266 269 274 284 290 289 290 282 276 273 268 256 263 280 266 255 252 244 224 180 179 170 175 173 178 171 170 169 169 170 167 169 168 162 161 158 155 155 156 155 144 149 143 148 143 142 152
268 272 275 269 274 267 270 271 268 266 271 280 296 266 249 250 263 273 251 237 230 192 177 174 166 173 167 178 167 172 169 167 168 178 173 170 163 159 160 165 161 163 167 165 167 140 146 130 143
278 275 276 278 271 265 265 273 278 280 275 268 269 271 283 286 251 249 268 258 222 206 192 181 176 170 172 175 180 168 175 178 169 180 167 172 165 160 165 167 175 173 160 163 168 153 135 135 181
280 267 266 264 283 273 269 276 271 263 261 260 259 251 251 261 265 262 245 246 239 206 193 189 180 175 176 175 169 141 163 160 177 168 170 175 177 175 173 171 169 174 171 178 175 172 164 147 212
289 311 307 303 269 270 157 281 257 250 261 255 264 246 232 242 248 255 251 249 228 211 191 182 185 181 181 175 173 172 175 188 191 181 178 178 184 182 177 170 168 171 174 180 183 180 175 139 173
287 288 297 291 271 285 254 259 275 260 262 255 251 245 231 231 234 243 237 229 237 199 186 179 174 177 183 177 185 182 187 186 163 177 178 182 179 180 177 176 173 175 182 185 181 174 169 163 152
290 298 283 276 121 250 258 191 284 266 264 271 263 247 239 228 238 242 247 196 210 167 157 160 159 176 182 184 184 190 190 179 167 172 178 182 181 181 183 182 181 181 181 183 186 182 184 183 161
0 307 309 352 344 238 335 228 251 0 2 343 318 303 276 13 340 246 247 198 276 166 159 167 166 172 186 189 190 192 191 179 180 177 181 178 182 189 189 186 186 185 185 182 183 185 187 185 188
307 262 332 309 287 295 289 238 83 31 7 5 17 33 25 28 34 26 20 38 45 36 29 40 41 66 188 191 196 198 196 194 188 184 182 187 190 190 183 189 188 187 184 179 182 186 190 191 187
325 2 259 272 253 262 247 43 233 10 11 10 1 18 27 16 39 24 16 26 42 36 30 26 40 33 28 22 292 199 189 201 195 188 189 187 187 188 182 186 186 185 183 182 183 187 185 181 181
332 324 334 337 310 310 306 73 349 354 356 353 352 4 14 16 42 22 21 16 33 48 33 26 43 36 10 359 350 330 194 196 201 192 193 191 185 176 173 169 168 165 168 171 179 176 167 173 178
331 336 293 264 240 254 332 59 356 350 343 349 347 1 17 18 34 24 16 19 27 46 29 19 39 28 16 357 343 327 327 198 186 194 181 174 149 158 163 170 164 173 176 174 175 180 173 179 175
189 356 328 287 296 276 241 85 354 356 356 357 4 5 16 17 20 18 12 1 54 50 26 29 27 22 359 342 328 311 301 289 180 187 175 160 172 169 168 172 177 182 187 184 185 179 180 184 184